sat.trackr.live / text

‹ back to catalog

STARLINK-35895

NORAD 66354 · 2025-254G

PAYLOAD ACTIVE UNKNOWN

§ Identity

Operator
Country
US
Launch date
2025-11-06
Launch site
AFWTR
Launch vehicle
Mass (kg)
RCS (m²)

Purposes: comms

External: N2YO · Heavens-Above · Gunter

§ Orbital elements

Epoch: 2026-09-20T20:56:57.803136Z

Period
93.90 min
Inclination
53.1573°
Eccentricity
0.0000982
Mean motion
15.33572657 rev/d
Perigee alt
464.5 km
Apogee alt
465.8 km
Semi-major
6,843.3 km
B*
4.5173e-4
RAAN
44.1113°
Arg perigee
75.5804°
Mean anomaly
284.5307°
Rev number
4,888

§ Raw data

STARLINK-358951 66354U 25254G   26263.87289124  .00014524  00000+0  45173-3 0  99902 66354  53.1573  44.1113 0000982  75.5804 284.5307 15.33572657 48883

JSON: /api/v1/satellites/66354 · /tle

For live sub-satellite position, see the globe view (requires WebGL).

§ Visibility from observer

Set your observer location to see the next 7 days of passes ≥ 10°. The values pass through the URL so the page stays shareable.

No JS? Fill the form by hand. The geolocation button needs JavaScript.